Hourly Weather Rudolfin

Today, 19 April, Monday

Time Temperature Precipitation Wind Pressure Humidity
00:00 +9°C° 0.1 mm 2 mps 746 mmHg 91%
01:00 +8°C° 0.1 mm 2 mps 746 mmHg 92%
02:00 +8°C° 0 mm 2 mps 746 mmHg 93%
03:00 +8°C° 0 mm 2 mps 746 mmHg 93%
04:00 +7°C° 0 mm 2 mps 745 mmHg 94%
05:00 +6°C° 0 mm 2 mps 745 mmHg 95%
06:00 +7°C° 0 mm 3 mps 745 mmHg 90%
07:00 +7°C° 0 mm 4 mps 746 mmHg 85%
08:00 +8°C° 0 mm 4 mps 746 mmHg 78%
09:00 +9°C° 0 mm 5 mps 746 mmHg 70%
10:00 +10°C° 0 mm 5 mps 746 mmHg 62%
11:00 +13°C° 0 mm 6 mps 745 mmHg 54%
12:00 +13°C° 0 mm 6 mps 745 mmHg 53%
13:00 +13°C° 0 mm 6 mps 745 mmHg 51%
14:00 +14°C° 0 mm 5 mps 745 mmHg 49%
15:00 +13°C° 0 mm 5 mps 745 mmHg 53%
16:00 +12°C° 0 mm 5 mps 744 mmHg 58%
17:00 +12°C° 0 mm 5 mps 744 mmHg 62%
18:00 +10°C° 0 mm 4 mps 745 mmHg 67%
19:00 +8°C° 0 mm 4 mps 745 mmHg 72%
20:00 +8°C° 0 mm 3 mps 745 mmHg 77%
21:00 +8°C° 0 mm 3 mps 745 mmHg 77%
22:00 +8°C° 0 mm 3 mps 745 mmHg 78%
23:00 +8°C° 0 mm 3 mps 745 mmHg 79%

Tomorrow, 20 April, Tuesday

Time Temperature Precipitation Wind Pressure Humidity
00:00 +8°C° 0 mm 3 mps 744 mmHg 80%
01:00 +7°C° 0 mm 3 mps 744 mmHg 82%
02:00 +7°C° 0 mm 2 mps 744 mmHg 83%
03:00 +6°C° 0 mm 2 mps 744 mmHg 86%
04:00 +6°C° 0 mm 2 mps 744 mmHg 88%
05:00 +5°C° 0 mm 2 mps 744 mmHg 91%
06:00 +6°C° 0 mm 2 mps 744 mmHg 86%
07:00 +7°C° 0 mm 3 mps 744 mmHg 82%
08:00 +8°C° 0 mm 3 mps 744 mmHg 77%
09:00 +9°C° 0.3 mm 3 mps 744 mmHg 72%
10:00 +10°C° 0.3 mm 3 mps 743 mmHg 67%
11:00 +11°C° 0.3 mm 4 mps 743 mmHg 62%
12:00 +11°C° 0.2 mm 4 mps 743 mmHg 60%
13:00 +12°C° 0.2 mm 4 mps 743 mmHg 58%
14:00 +12°C° 0.2 mm 3 mps 742 mmHg 56%
15:00 +12°C° 0 mm 3 mps 742 mmHg 55%
16:00 +12°C° 0 mm 3 mps 742 mmHg 55%
17:00 +13°C° 0 mm 2 mps 742 mmHg 54%
18:00 +12°C° 0 mm 2 mps 742 mmHg 59%
19:00 +11°C° 0 mm 1 mps 742 mmHg 64%
20:00 +10°C° 0 mm 1 mps 742 mmHg 69%
21:00 +9°C° 0 mm 1 mps 742 mmHg 72%
22:00 +9°C° 0 mm 1 mps 742 mmHg 75%
23:00 +7°C° 0 mm 0 mps 742 mmHg 78%

Day after tomorrow, 21 April, Wednesday

Time Temperature Precipitation Wind Pressure Humidity
00:00 +8°C° 0 mm 1 mps 742 mmHg 79%
01:00 +7°C° 0 mm 1 mps 742 mmHg 81%
02:00 +6°C° 0 mm 2 mps 741 mmHg 83%
03:00 +6°C° 0 mm 2 mps 741 mmHg 86%
04:00 +5°C° 0 mm 2 mps 741 mmHg 88%
05:00 +5°C° 0 mm 2 mps 741 mmHg 91%
06:00 +5°C° 0 mm 3 mps 741 mmHg 86%
07:00 +8°C° 0 mm 3 mps 742 mmHg 82%
08:00 +8°C° 0 mm 4 mps 742 mmHg 77%
09:00 +10°C° 0.2 mm 4 mps 742 mmHg 71%
10:00 +10°C° 0.2 mm 5 mps 741 mmHg 64%
11:00 +13°C° 0.2 mm 5 mps 741 mmHg 57%
12:00 +13°C° 0.1 mm 5 mps 741 mmHg 53%
13:00 +14°C° 0.1 mm 5 mps 741 mmHg 50%
14:00 +14°C° 0.1 mm 5 mps 741 mmHg 47%
15:00 +14°C° 0.1 mm 5 mps 741 mmHg 51%
16:00 +14°C° 0.1 mm 5 mps 741 mmHg 56%
17:00 +13°C° 0.1 mm 5 mps 741 mmHg 60%
18:00 +12°C° 0.4 mm 4 mps 741 mmHg 68%
19:00 +11°C° 0.4 mm 4 mps 741 mmHg 76%
20:00 +9°C° 0.4 mm 3 mps 741 mmHg 84%
21:00 +9°C° 0.1 mm 3 mps 741 mmHg 86%
22:00 +8°C° 0.1 mm 3 mps 741 mmHg 88%
23:00 +7°C° 0.1 mm 4 mps 741 mmHg 90%

22 April, Thursday

Time Temperature Precipitation Wind Pressure Humidity
00:00 +7°C° 0 mm 3 mps 741 mmHg 90%
01:00 +7°C° 0 mm 3 mps 741 mmHg 91%
02:00 +5°C° 0 mm 3 mps 741 mmHg 91%
03:00 +5°C° 0 mm 3 mps 741 mmHg 90%
04:00 +5°C° 0 mm 3 mps 741 mmHg 89%
05:00 +5°C° 0 mm 3 mps 742 mmHg 88%
06:00 +7°C° 0 mm 3 mps 742 mmHg 84%
07:00 +7°C° 0 mm 4 mps 742 mmHg 81%
08:00 +8°C° 0 mm 4 mps 743 mmHg 77%
09:00 +10°C° 0 mm 3 mps 743 mmHg 72%
10:00 +11°C° 0 mm 3 mps 743 mmHg 66%
11:00 +13°C° 0 mm 3 mps 743 mmHg 60%
12:00 +12°C° 0.2 mm 4 mps 742 mmHg 63%
13:00 +12°C° 0.2 mm 4 mps 742 mmHg 65%
14:00 +12°C° 0.2 mm 5 mps 742 mmHg 68%
15:00 +9°C° 0.4 mm 5 mps 742 mmHg 74%
16:00 +7°C° 0.4 mm 4 mps 742 mmHg 80%
17:00 +6°C° 0.4 mm 4 mps 742 mmHg 86%
18:00 +5°C° 1.6 mm 3 mps 743 mmHg 87%
19:00 +6°C° 1.6 mm 2 mps 743 mmHg 89%
20:00 +6°C° 1.6 mm 2 mps 743 mmHg 90%
21:00 +5°C° 0 mm 2 mps 743 mmHg 90%
22:00 +5°C° 0 mm 2 mps 743 mmHg 89%
23:00 +5°C° 0 mm 2 mps 743 mmHg 89%

23 April, Friday

Time Temperature Precipitation Wind Pressure Humidity
00:00 +4°C° 0 mm 3 mps 743 mmHg 87%
01:00 +4°C° 0 mm 3 mps 743 mmHg 86%
02:00 +4°C° 0 mm 3 mps 743 mmHg 84%
03:00 +3°C° 0 mm 3 mps 743 mmHg 84%
04:00 +3°C° 0 mm 4 mps 743 mmHg 83%
05:00 +3°C° 0 mm 4 mps 743 mmHg 83%
06:00 +2°C° 0 mm 5 mps 743 mmHg 81%
07:00 +2°C° 0 mm 6 mps 744 mmHg 79%
08:00 +2°C° 0 mm 7 mps 744 mmHg 77%
09:00 +3°C° 0 mm 7 mps 744 mmHg 73%
10:00 +4°C° 0 mm 7 mps 745 mmHg 70%
11:00 +5°C° 0 mm 7 mps 745 mmHg 66%
12:00 +5°C° 0.1 mm 7 mps 745 mmHg 63%
13:00 +6°C° 0.1 mm 7 mps 745 mmHg 60%
14:00 +6°C° 0.1 mm 7 mps 745 mmHg 56%
15:00 +6°C° 0.1 mm 7 mps 745 mmHg 59%
16:00 +6°C° 0.1 mm 7 mps 745 mmHg 61%
17:00 +6°C° 0.1 mm 7 mps 745 mmHg 63%
18:00 +5°C° 0.1 mm 6 mps 746 mmHg 70%
19:00 +5°C° 0.1 mm 5 mps 746 mmHg 77%
20:00 +4°C° 0.1 mm 4 mps 746 mmHg 84%
21:00 +3°C° 0 mm 4 mps 746 mmHg 87%
22:00 +3°C° 0 mm 3 mps 746 mmHg 90%
23:00 +2°C° 0 mm 3 mps 746 mmHg 93%

24 April, Saturday

Time Temperature Precipitation Wind Pressure Humidity
00:00 +1°C° 0 mm 3 mps 746 mmHg 93%
01:00 +2°C° 0 mm 2 mps 746 mmHg 94%
02:00 +1°C° 0 mm 2 mps 746 mmHg 94%
03:00 +1°C° 0 mm 2 mps 746 mmHg 93%
04:00 0°C° 0 mm 3 mps 745 mmHg 92%
05:00 0°C° 0 mm 3 mps 745 mmHg 91%
06:00 0°C° 0.2 mm 4 mps 745 mmHg 90%
07:00 +1°C° 0.2 mm 5 mps 745 mmHg 89%
08:00 +2°C° 0.2 mm 6 mps 744 mmHg 88%
09:00 +2°C° 0.2 mm 6 mps 744 mmHg 86%
10:00 +3°C° 0.2 mm 6 mps 744 mmHg 84%
11:00 +3°C° 0.2 mm 6 mps 744 mmHg 81%
12:00 +3°C° 0.3 mm 6 mps 744 mmHg 79%
13:00 +3°C° 0.3 mm 6 mps 745 mmHg 76%
14:00 +3°C° 0.3 mm 6 mps 745 mmHg 73%
15:00 +3°C° 0 mm 6 mps 745 mmHg 68%
16:00 +5°C° 0 mm 5 mps 745 mmHg 63%
17:00 +5°C° 0 mm 5 mps 745 mmHg 57%
18:00 +4°C° 0 mm 4 mps 746 mmHg 63%
19:00 +3°C° 0 mm 3 mps 746 mmHg 70%
20:00 +1°C° 0 mm 3 mps 746 mmHg 76%
21:00 +1°C° 0 mm 3 mps 746 mmHg 78%
22:00 +1°C° 0 mm 3 mps 746 mmHg 80%
23:00 0°C° 0 mm 3 mps 746 mmHg 82%
Show more